Precipitable_Water
2.08 2.06 2.10 2.08 2.07 2.06 2.05 1.95 1.91 1.89 1.86 1.82 1.78 1.75 1.71 1.68 1.61 1.58 1.49 1.46 1.45 1.49 1.49 1.53 1.58 1.62 1.63 1.63 1.61 1.59 1.61 1.63 1.67 1.73 1.74 1.76 1.70 1.66 1.64 1.64 1.61 1.59 1.67 1.75 1.76 1.65 1.60 1.61 1.79 1.93 1.90 1.82 1.81 1.88 1.84 1.79 1.77 1.80 1.80 1.66 1.67 1.81 1.93 1.82 1.81 1.87 1.94 1.95 1.92 1.89 1.93 1.95 1.94 1.91 1.87 1.82 1.74 1.59 1.40 1.30 1.35 1.38 1.39 1.43 1.50
1.93 2.03 2.04 2.03 2.03 2.00 1.95 1.92 1.88 1.85 1.81 1.78 1.73 1.69 1.67 1.65 1.62 1.55 1.50 1.47 1.48 1.51 1.57 1.58 1.62 1.65 1.67 1.67 1.68 1.70 1.72 1.74 1.73 1.64 1.59 1.60 1.65 1.63 1.66 1.70 1.65 1.71 1.71 1.73 1.77 1.71 1.64 1.67 1.79 1.84 1.89 1.83 1.79 1.82 1.86 1.83 1.84 1.84 1.76 1.69 1.65 1.77 1.96 1.83 1.83 1.90 1.88 1.90 1.89 1.90 1.88 1.88 1.86 1.87 1.81 1.78 1.79 1.67 1.44 1.30 1.30 1.36 1.38 1.39 1.45
1.97 2.00 2.02 2.01 2.02 1.97 1.91 1.90 1.87 1.89 1.88 1.80 1.74 1.69 1.66 1.62 1.54 1.47 1.45 1.49 1.55 1.60 1.62 1.66 1.74 1.81 1.80 1.80 1.82 1.78 1.74 1.68 1.66 1.62 1.62 1.66 1.72 1.74 1.75 1.77 1.77 1.80 1.79 1.78 1.78 1.75 1.76 1.86 1.84 1.84 1.84 1.83 1.81 1.82 1.84 1.86 1.88 1.82 1.76 1.73 1.73 1.68 1.90 1.89 1.85 1.91 1.89 1.90 1.89 1.92 1.90 1.84 1.86 1.83 1.77 1.76 1.77 1.63 1.39 1.25 1.25 1.30 1.32 1.36 1.39
1.94 1.91 1.95 1.94 1.96 1.94 1.92 1.91 1.85 1.78 1.69 1.66 1.64 1.59 1.55 1.50 1.45 1.46 1.51 1.55 1.58 1.62 1.69 1.80 1.87 1.88 1.82 1.74 1.66 1.69 1.67 1.73 1.74 1.72 1.77 1.82 1.76 1.80 1.87 1.88 1.90 1.90 1.86 1.85 1.87 1.83 1.79 1.86 1.88 1.90 1.93 1.91 1.89 1.86 1.87 1.89 1.89 1.84 1.78 1.76 1.77 1.79 1.79 1.92 1.91 1.94 1.91 1.92 1.93 1.87 1.88 1.87 1.87 1.86 1.87 1.80 1.66 1.52 1.35 1.26 1.30 1.33 1.33 1.33 1.34
1.90 1.94 1.92 1.90 1.91 1.88 1.89 1.79 1.68 1.61 1.60 1.66 1.60 1.56 1.52 1.48 1.47 1.50 1.51 1.54 1.60 1.68 1.79 1.88 1.86 1.77 1.73 1.66 1.73 1.76 1.76 1.74 1.73 1.75 1.79 1.83 1.86 1.86 1.87 1.94 1.96 1.97 1.94 1.91 1.94 1.89 1.87 1.93 1.90 1.91 1.95 1.96 1.91 1.85 1.86 1.91 1.90 1.88 1.84 1.78 1.81 1.86 1.83 1.92 1.94 1.92 1.92 1.91 1.92 1.90 1.91 1.90 1.90 1.87 1.84 1.71 1.57 1.49 1.36 1.28 1.32 1.35 1.34 1.35 1.43
1.92 1.97 2.01 2.04 1.97 1.83 1.77 1.73 1.69 1.76 1.70 1.61 1.58 1.54 1.51 1.49 1.52 1.53 1.56 1.61 1.72 1.80 1.86 1.85 1.74 1.72 1.75 1.81 1.81 1.84 1.85 1.80 1.76 1.78 1.83 1.85 1.87 1.86 1.89 1.92 1.94 1.95 1.96 1.95 1.89 1.85 1.85 1.88 1.83 1.82 1.88 1.88 1.86 1.87 1.89 1.90 1.89 1.86 1.84 1.78 1.79 1.81 1.89 1.96 1.90 1.86 1.90 1.91 1.92 1.96 1.94 1.95 1.90 1.87 1.81 1.65 1.55 1.47 1.38 1.31 1.36 1.38 1.38 1.44 1.51
1.84 1.98 2.01 1.95 1.93 1.89 1.86 1.80 1.81 1.71 1.62 1.59 1.55 1.51 1.49 1.52 1.56 1.61 1.65 1.70 1.77 1.84 1.83 1.76 1.76 1.75 1.82 1.79 1.79 1.80 1.78 1.77 1.79 1.83 1.86 1.89 1.90 1.89 1.91 1.91 1.89 1.91 1.93 1.92 1.86 1.79 1.81 1.84 1.79 1.79 1.84 1.84 1.82 1.86 1.89 1.90 1.89 1.89 1.85 1.82 1.78 1.81 1.86 1.88 1.88 1.90 1.92 1.87 1.87 1.91 1.87 1.93 1.91 1.83 1.82 1.75 1.62 1.53 1.43 1.34 1.37 1.42 1.45 1.50 1.53
1.77 1.88 1.99 2.03 1.97 1.89 1.83 1.73 1.66 1.62 1.59 1.55 1.50 1.48 1.54 1.59 1.62 1.67 1.69 1.73 1.82 1.82 1.77 1.77 1.85 1.80 1.77 1.79 1.82 1.85 1.86 1.83 1.80 1.80 1.82 1.86 1.88 1.86 1.86 1.89 1.88 1.88 1.82 1.74 1.75 1.76 1.75 1.77 1.84 1.83 1.82 1.85 1.83 1.86 1.91 1.90 1.92 1.92 1.88 1.84 1.79 1.79 1.82 1.84 1.87 1.89 1.84 1.84 1.92 1.90 1.90 1.86 1.87 1.78 1.78 1.71 1.66 1.53 1.40 1.32 1.36 1.41 1.42 1.44 1.47
1.70 1.77 1.85 1.88 1.82 1.75 1.73 1.67 1.61 1.57 1.54 1.49 1.45 1.48 1.55 1.61 1.68 1.67 1.68 1.74 1.81 1.81 1.77 1.79 1.87 1.84 1.81 1.83 1.85 1.87 1.89 1.84 1.84 1.88 1.89 1.88 1.89 1.86 1.83 1.87 1.86 1.83 1.76 1.73 1.75 1.80 1.79 1.81 1.84 1.85 1.83 1.82 1.84 1.88 1.90 1.88 1.88 1.85 1.82 1.82 1.81 1.78 1.78 1.85 1.90 1.90 1.86 1.85 1.85 1.79 1.82 1.80 1.81 1.82 1.78 1.70 1.60 1.54 1.47 1.37 1.37 1.41 1.43 1.45 1.49
1.72 1.76 1.76 1.74 1.74 1.78 1.77 1.63 1.60 1.53 1.47 1.44 1.46 1.51 1.59 1.65 1.65 1.63 1.66 1.76 1.78 1.77 1.80 1.85 1.88 1.85 1.82 1.80 1.79 1.83 1.84 1.84 1.85 1.85 1.86 1.86 1.86 1.88 1.88 1.87 1.88 1.84 1.83 1.92 1.95 1.93 1.91 1.89 1.89 1.88 1.83 1.83 1.87 1.87 1.87 1.87 1.87 1.81 1.79 1.78 1.78 1.77 1.81 1.88 1.88 1.89 1.85 1.82 1.83 1.88 1.81 1.80 1.78 1.76 1.70 1.65 1.60 1.58 1.54 1.44 1.42 1.49 1.46 1.48 1.52
1.73 1.76 1.75 1.73 1.77 1.75 1.68 1.59 1.52 1.44 1.43 1.45 1.47 1.56 1.63 1.63 1.62 1.64 1.70 1.82 1.81 1.80 1.81 1.85 1.86 1.81 1.84 1.84 1.81 1.82 1.84 1.86 1.87 1.89 1.90 1.90 1.90 1.91 1.88 1.86 1.85 1.84 1.89 1.92 1.92 1.95 1.94 1.90 1.88 1.86 1.88 1.87 1.89 1.88 1.86 1.85 1.83 1.78 1.76 1.75 1.76 1.82 1.87 1.90 1.91 1.87 1.83 1.79 1.73 1.83 1.84 1.84 1.78 1.70 1.64 1.62 1.56 1.49 1.43 1.37 1.40 1.44 1.49 1.54 1.60
1.73 1.78 1.78 1.76 1.76 1.73 1.60 1.51 1.43 1.41 1.45 1.48 1.56 1.61 1.63 1.61 1.61 1.67 1.77 1.86 1.84 1.79 1.81 1.82 1.86 1.84 1.87 1.84 1.80 1.78 1.81 1.85 1.88 1.90 1.87 1.87 1.87 1.87 1.88 1.86 1.88 1.88 1.95 1.99 1.97 1.94 1.92 1.94 1.95 1.90 1.87 1.87 1.87 1.90 1.88 1.83 1.78 1.75 1.72 1.73 1.77 1.85 1.89 1.89 1.89 1.84 1.82 1.79 1.77 1.82 1.79 1.73 1.67 1.62 1.61 1.55 1.49 1.44 1.35 1.33 1.40 1.47 1.54 1.60 1.66
1.69 1.77 1.79 1.78 1.77 1.63 1.50 1.42 1.45 1.48 1.52 1.58 1.62 1.63 1.61 1.58 1.61 1.73 1.84 1.89 1.83 1.79 1.80 1.84 1.84 1.85 1.86 1.82 1.81 1.85 1.88 1.88 1.89 1.91 1.92 1.89 1.89 1.89 1.85 1.85 1.90 1.97 2.01 2.02 2.01 1.96 1.90 1.94 1.97 1.95 1.93 1.93 1.92 1.90 1.85 1.78 1.75 1.73 1.70 1.72 1.77 1.83 1.82 1.84 1.81 1.78 1.73 1.69 1.65 1.66 1.63 1.62 1.59 1.57 1.54 1.49 1.43 1.40 1.41 1.42 1.46 1.49 1.54 1.59 1.61
1.69 1.73 1.77 1.80 1.71 1.51 1.44 1.48 1.50 1.53 1.57 1.61 1.62 1.61 1.56 1.55 1.64 1.77 1.87 1.90 1.84 1.78 1.77 1.82 1.87 1.85 1.85 1.82 1.83 1.87 1.90 1.90 1.91 1.90 1.90 1.90 1.90 1.88 1.87 1.87 1.92 1.98 2.01 2.00 2.00 2.00 1.98 1.95 1.94 1.94 1.93 1.91 1.86 1.83 1.81 1.78 1.74 1.70 1.70 1.71 1.73 1.74 1.75 1.73 1.71 1.62 1.52 1.51 1.59 1.62 1.60 1.57 1.56 1.56 1.52 1.47 1.49 1.51 1.50 1.46 1.47 1.47 1.50 1.55 1.60
1.67 1.69 1.74 1.75 1.55 1.48 1.45 1.49 1.53 1.57 1.60 1.61 1.61 1.56 1.53 1.59 1.71 1.83 1.89 1.89 1.88 1.82 1.81 1.79 1.82 1.85 1.84 1.82 1.85 1.88 1.89 1.91 1.92 1.91 1.87 1.88 1.86 1.84 1.82 1.83 1.91 1.98 2.01 1.99 1.97 1.95 1.98 1.96 1.94 1.93 1.89 1.86 1.83 1.82 1.79 1.75 1.73 1.70 1.68 1.68 1.70 1.72 1.76 1.70 1.49 1.37 1.41 1.53 1.55 1.55 1.54 1.58 1.59 1.61 1.58 1.57 1.58 1.58 1.54 1.45 1.42 1.43 1.47 1.53 1.55
1.70 1.69 1.67 1.66 1.55 1.45 1.49 1.53 1.56 1.58 1.60 1.61 1.57 1.54 1.59 1.66 1.75 1.81 1.83 1.86 1.85 1.83 1.84 1.86 1.84 1.85 1.85 1.83 1.84 1.87 1.87 1.88 1.89 1.88 1.86 1.86 1.83 1.80 1.84 1.91 2.00 1.99 1.96 1.97 2.00 1.98 1.96 1.95 1.92 1.91 1.88 1.85 1.81 1.79 1.77 1.71 1.67 1.64 1.62 1.63 1.68 1.69 1.67 1.55 1.37 1.40 1.53 1.55 1.57 1.56 1.55 1.58 1.63 1.64 1.64 1.65 1.65 1.63 1.55 1.44 1.39 1.39 1.39 1.40 1.42
1.63 1.62 1.59 1.55 1.48 1.48 1.48 1.59 1.58 1.57 1.60 1.62 1.58 1.62 1.70 1.79 1.82 1.78 1.81 1.83 1.84 1.82 1.81 1.87 1.80 1.82 1.82 1.79 1.80 1.84 1.86 1.86 1.86 1.87 1.86 1.86 1.86 1.84 1.84 1.89 1.95 1.98 1.99 1.98 1.95 1.94 1.95 1.96 1.93 1.88 1.84 1.82 1.82 1.81 1.76 1.69 1.63 1.60 1.60 1.59 1.59 1.60 1.56 1.48 1.40 1.48 1.57 1.59 1.63 1.63 1.62 1.63 1.64 1.67 1.69 1.70 1.71 1.67 1.62 1.55 1.46 1.40 1.37 1.36 1.35
1.53 1.53 1.47 1.47 1.47 1.47 1.53 1.55 1.56 1.66 1.67 1.72 1.73 1.74 1.84 1.79 1.75 1.73 1.76 1.80 1.82 1.84 1.83 1.84 1.81 1.79 1.82 1.85 1.87 1.86 1.85 1.86 1.86 1.85 1.85 1.86 1.86 1.73 1.63 1.73 1.91 1.96 1.98 1.97 1.96 1.98 1.93 1.89 1.87 1.85 1.83 1.81 1.80 1.80 1.73 1.66 1.61 1.61 1.63 1.58 1.54 1.57 1.58 1.53 1.43 1.50 1.59 1.64 1.65 1.60 1.59 1.61 1.68 1.71 1.73 1.74 1.75 1.72 1.69 1.63 1.56 1.50 1.44 1.37 1.35
1.44 1.46 1.48 1.51 1.51 1.52 1.52 1.55 1.70 1.77 1.88 1.90 1.86 1.83 1.80 1.78 1.71 1.70 1.72 1.75 1.81 1.75 1.82 1.83 1.87 1.84 1.85 1.82 1.85 1.86 1.86 1.84 1.84 1.86 1.87 1.85 1.74 1.62 1.56 1.69 1.88 1.96 2.00 1.99 1.98 1.99 1.91 1.88 1.85 1.86 1.86 1.81 1.78 1.75 1.70 1.65 1.66 1.66 1.62 1.54 1.53 1.58 1.61 1.59 1.52 1.55 1.60 1.65 1.63 1.59 1.58 1.64 1.71 1.74 1.76 1.75 1.75 1.77 1.71 1.64 1.57 1.53 1.50 1.45 1.39
1.42 1.47 1.51 1.59 1.60 1.55 1.53 1.59 1.72 1.87 1.87 1.90 1.86 1.83 1.81 1.77 1.77 1.70 1.69 1.67 1.83 1.78 1.78 1.83 1.81 1.78 1.83 1.84 1.83 1.84 1.85 1.83 1.81 1.83 1.81 1.81 1.77 1.64 1.51 1.64 1.82 1.90 1.93 1.94 1.93 1.90 1.86 1.84 1.83 1.79 1.75 1.74 1.75 1.74 1.72 1.70 1.69 1.64 1.58 1.57 1.63 1.70 1.70 1.69 1.63 1.60 1.59 1.58 1.56 1.55 1.58 1.64 1.69 1.74 1.76 1.77 1.76 1.75 1.71 1.64 1.58 1.54 1.52 1.47 1.43
1.42 1.47 1.54 1.62 1.64 1.55 1.54 1.65 1.76 1.87 2.00 1.87 1.84 1.80 1.81 1.78 1.71 1.71 1.71 1.71 1.77 1.79 1.83 1.87 1.82 1.83 1.81 1.80 1.81 1.83 1.87 1.88 1.88 1.83 1.81 1.81 1.76 1.62 1.51 1.62 1.78 1.85 1.87 1.88 1.89 1.86 1.83 1.82 1.79 1.76 1.74 1.78 1.79 1.76 1.69 1.61 1.56 1.56 1.62 1.70 1.76 1.77 1.75 1.73 1.67 1.65 1.64 1.61 1.53 1.48 1.52 1.58 1.65 1.72 1.72 1.72 1.72 1.69 1.67 1.63 1.60 1.56 1.50 1.46 1.45
1.39 1.47 1.59 1.65 1.64 1.55 1.52 1.63 1.78 1.80 1.87 1.85 1.92 1.85 1.80 1.80 1.74 1.74 1.79 1.87 1.82 1.84 1.82 1.85 1.82 1.80 1.79 1.81 1.89 1.89 1.89 1.87 1.87 1.86 1.84 1.80 1.74 1.62 1.54 1.60 1.72 1.79 1.82 1.83 1.86 1.87 1.81 1.74 1.74 1.75 1.75 1.73 1.64 1.53 1.45 1.46 1.53 1.60 1.69 1.73 1.75 1.75 1.74 1.70 1.69 1.68 1.66 1.64 1.54 1.46 1.48 1.54 1.61 1.70 1.74 1.75 1.71 1.67 1.65 1.61 1.57 1.53 1.49 1.49 1.47
1.39 1.44 1.53 1.62 1.65 1.58 1.49 1.59 1.74 1.78 1.81 1.85 1.84 1.79 1.83 1.83 1.79 1.90 1.86 1.77 1.77 1.75 1.77 1.81 1.82 1.81 1.84 1.84 1.86 1.88 1.88 1.90 1.90 1.87 1.84 1.80 1.76 1.69 1.60 1.60 1.67 1.72 1.75 1.77 1.76 1.74 1.73 1.73 1.71 1.70 1.76 1.75 1.76 1.69 1.63 1.52 1.46 1.49 1.58 1.60 1.57 1.59 1.64 1.68 1.68 1.70 1.69 1.65 1.53 1.49 1.50 1.54 1.59 1.66 1.71 1.69 1.68 1.67 1.63 1.60 1.55 1.51 1.49 1.50 1.49
1.36 1.42 1.46 1.62 1.65 1.57 1.45 1.57 1.71 1.76 1.79 1.82 1.82 1.80 1.79 1.80 1.76 1.76 1.78 1.78 1.75 1.73 1.72 1.73 1.73 1.74 1.76 1.80 1.80 1.80 1.79 1.78 1.79 1.81 1.81 1.78 1.75 1.70 1.63 1.60 1.67 1.74 1.72 1.70 1.66 1.62 1.58 1.58 1.61 1.65 1.74 1.73 1.65 1.60 1.56 1.55 1.51 1.43 1.32 1.26 1.34 1.39 1.40 1.43 1.47 1.54 1.62 1.64 1.55 1.54 1.55 1.56 1.58 1.63 1.69 1.67 1.67 1.64 1.62 1.56 1.53 1.51 1.51 1.51 1.50
1.35 1.40 1.42 1.50 1.59 1.56 1.39 1.48 1.73 1.77 1.79 1.80 1.79 1.77 1.77 1.78 1.77 1.75 1.74 1.75 1.74 1.72 1.69 1.64 1.61 1.63 1.69 1.76 1.81 1.82 1.82 1.81 1.82 1.83 1.84 1.83 1.82 1.81 1.83 1.78 1.79 1.78 1.78 1.75 1.76 1.81 1.77 1.72 1.77 1.68 1.62 1.55 1.53 1.51 1.47 1.39 1.35 1.27 1.25 1.24 1.21 1.25 1.25 1.27 1.28 1.27 1.32 1.36 1.33 1.44 1.53 1.55 1.57 1.60 1.63 1.62 1.65 1.66 1.62 1.56 1.54 1.54 1.53 1.52 1.53
1.34 1.29 1.30 1.42 1.52 1.52 1.37 1.42 1.68 1.75 1.78 1.78 1.78 1.74 1.75 1.71 1.71 1.71 1.71 1.72 1.71 1.71 1.70 1.61 1.61 1.65 1.66 1.67 1.67 1.67 1.70 1.73 1.73 1.74 1.77 1.79 1.77 1.74 1.72 1.71 1.71 1.73 1.81 1.76 1.78 1.78 1.75 1.74 1.70 1.70 1.65 1.61 1.55 1.53 1.49 1.41 1.32 1.32 1.31 1.31 1.26 1.20 1.22 1.26 1.30 1.31 1.34 1.32 1.16 1.24 1.39 1.49 1.53 1.57 1.60 1.62 1.63 1.62 1.63 1.59 1.54 1.52 1.53 1.53 1.54
1.19 1.22 1.26 1.38 1.45 1.47 1.39 1.36 1.64 1.72 1.75 1.81 1.77 1.74 1.75 1.74 1.73 1.73 1.70 1.67 1.70 1.64 1.61 1.60 1.64 1.67 1.68 1.69 1.62 1.58 1.59 1.61 1.65 1.69 1.71 1.75 1.71 1.71 1.71 1.73 1.71 1.71 1.76 1.72 1.71 1.74 1.72 1.68 1.66 1.66 1.68 1.58 1.54 1.55 1.54 1.53 1.54 1.46 1.44 1.44 1.40 1.35 1.33 1.35 1.35 1.35 1.33 1.31 1.17 1.18 1.25 1.38 1.46 1.51 1.56 1.58 1.58 1.58 1.58 1.54 1.50 1.52 1.56 1.59 1.60
1.16 1.18 1.20 1.33 1.38 1.41 1.36 1.39 1.62 1.68 1.70 1.74 1.72 1.71 1.75 1.75 1.70 1.67 1.71 1.66 1.66 1.61 1.59 1.58 1.63 1.67 1.75 1.74 1.69 1.61 1.56 1.54 1.57 1.62 1.66 1.70 1.68 1.70 1.77 1.80 1.79 1.77 1.81 1.81 1.75 1.75 1.73 1.70 1.66 1.65 1.67 1.65 1.61 1.62 1.61 1.61 1.60 1.60 1.55 1.53 1.54 1.50 1.47 1.39 1.38 1.43 1.41 1.39 1.32 1.16 1.23 1.24 1.34 1.40 1.46 1.49 1.51 1.50 1.47 1.48 1.51 1.57 1.60 1.62 1.59
1.10 1.12 1.17 1.27 1.35 1.37 1.31 1.44 1.58 1.63 1.66 1.72 1.69 1.74 1.75 1.74 1.68 1.72 1.63 1.64 1.69 1.67 1.64 1.67 1.69 1.70 1.71 1.75 1.73 1.62 1.59 1.57 1.56 1.56 1.61 1.60 1.65 1.70 1.73 1.74 1.79 1.80 1.84 1.82 1.81 1.77 1.74 1.73 1.71 1.69 1.68 1.69 1.67 1.66 1.68 1.65 1.69 1.63 1.61 1.57 1.54 1.51 1.51 1.44 1.40 1.45 1.45 1.46 1.46 1.25 1.23 1.23 1.26 1.35 1.38 1.40 1.41 1.44 1.47 1.53 1.56 1.58 1.58 1.56 1.55
1.08 1.09 1.12 1.23 1.29 1.33 1.36 1.48 1.57 1.58 1.63 1.66 1.69 1.70 1.69 1.68 1.70 1.72 1.64 1.74 1.74 1.71 1.74 1.76 1.74 1.74 1.75 1.78 1.76 1.71 1.63 1.57 1.57 1.59 1.59 1.60 1.66 1.66 1.67 1.72 1.71 1.80 1.82 1.77 1.83 1.82 1.78 1.76 1.75 1.74 1.73 1.72 1.68 1.70 1.71 1.67 1.66 1.58 1.59 1.55 1.60 1.55 1.51 1.46 1.44 1.43 1.44 1.43 1.46 1.40 1.24 1.25 1.28 1.29 1.31 1.36 1.42 1.47 1.52 1.56 1.57 1.56 1.55 1.54 1.55
1.08 1.05 1.10 1.19 1.30 1.32 1.40 1.54 1.57 1.56 1.58 1.57 1.63 1.67 1.67 1.68 1.70 1.73 1.71 1.78 1.75 1.77 1.84 1.80 1.80 1.78 1.72 1.71 1.69 1.70 1.68 1.64 1.60 1.60 1.61 1.63 1.64 1.67 1.66 1.70 1.73 1.74 1.80 1.77 1.80 1.81 1.81 1.78 1.78 1.77 1.75 1.75 1.71 1.72 1.72 1.64 1.61 1.57 1.54 1.55 1.51 1.52 1.50 1.50 1.47 1.44 1.40 1.38 1.42 1.47 1.32 1.26 1.27 1.25 1.31 1.34 1.41 1.42 1.44 1.46 1.51 1.54 1.56 1.55 1.54
1.04 1.03 1.10 1.23 1.26 1.32 1.42 1.54 1.56 1.53 1.54 1.55 1.57 1.62 1.62 1.66 1.68 1.71 1.72 1.75 1.75 1.80 1.82 1.82 1.80 1.75 1.74 1.72 1.71 1.73 1.72 1.66 1.67 1.66 1.64 1.66 1.66 1.66 1.67 1.70 1.68 1.74 1.78 1.79 1.78 1.78 1.79 1.77 1.76 1.76 1.78 1.79 1.73 1.71 1.71 1.65 1.60 1.56 1.55 1.49 1.52 1.51 1.51 1.55 1.49 1.38 1.37 1.36 1.41 1.41 1.46 1.40 1.28 1.28 1.30 1.36 1.39 1.41 1.44 1.44 1.47 1.48 1.48 1.49 1.48
1.10 1.10 1.11 1.12 1.17 1.28 1.41 1.50 1.57 1.50 1.54 1.53 1.54 1.62 1.63 1.63 1.65 1.70 1.72 1.68 1.75 1.78 1.76 1.77 1.77 1.76 1.81 1.81 1.77 1.73 1.78 1.72 1.72 1.73 1.73 1.73 1.68 1.67 1.67 1.67 1.70 1.72 1.76 1.76 1.76 1.78 1.77 1.77 1.71 1.77 1.74 1.74 1.70 1.67 1.69 1.63 1.55 1.56 1.59 1.51 1.52 1.48 1.54 1.55 1.53 1.51 1.45 1.46 1.46 1.46 1.43 1.46 1.50 1.37 1.35 1.36 1.36 1.42 1.44 1.46 1.47 1.47 1.47 1.47 1.47
1.12 1.13 1.12 1.04 1.12 1.26 1.38 1.48 1.56 1.46 1.53 1.57 1.56 1.59 1.61 1.62 1.66 1.72 1.72 1.70 1.72 1.74 1.75 1.77 1.77 1.77 1.81 1.85 1.84 1.84 1.83 1.84 1.80 1.76 1.80 1.73 1.69 1.68 1.66 1.67 1.70 1.72 1.73 1.78 1.76 1.76 1.72 1.70 1.67 1.69 1.64 1.68 1.62 1.64 1.63 1.55 1.53 1.58 1.52 1.48 1.50 1.49 1.54 1.51 1.51 1.48 1.53 1.48 1.49 1.49 1.48 1.51 1.56 1.56 1.56 1.50 1.48 1.46 1.45 1.45 1.44 1.45 1.45 1.45 1.46
1.18 1.14 1.08 1.05 1.07 1.18 1.33 1.42 1.48 1.47 1.50 1.55 1.54 1.58 1.62 1.60 1.62 1.68 1.68 1.73 1.71 1.73 1.72 1.72 1.75 1.79 1.81 1.82 1.86 1.85 1.85 1.85 1.84 1.82 1.76 1.74 1.72 1.68 1.68 1.67 1.71 1.74 1.74 1.73 1.77 1.72 1.70 1.66 1.66 1.64 1.64 1.62 1.63 1.56 1.55 1.47 1.44 1.44 1.46 1.52 1.46 1.47 1.50 1.45 1.49 1.49 1.48 1.49 1.52 1.48 1.50 1.51 1.55 1.57 1.63 1.65 1.61 1.53 1.50 1.47 1.45 1.45 1.45 1.46 1.45
1.17 1.18 1.16 1.12 1.03 1.12 1.25 1.32 1.35 1.39 1.44 1.52 1.52 1.59 1.59 1.60 1.63 1.65 1.68 1.72 1.71 1.73 1.75 1.75 1.76 1.80 1.84 1.81 1.84 1.84 1.84 1.82 1.84 1.81 1.79 1.76 1.73 1.70 1.68 1.67 1.68 1.73 1.74 1.72 1.77 1.70 1.66 1.66 1.65 1.66 1.57 1.58 1.55 1.51 1.49 1.43 1.43 1.43 1.44 1.46 1.46 1.50 1.50 1.48 1.51 1.50 1.47 1.52 1.51 1.50 1.50 1.51 1.54 1.53 1.60 1.63 1.63 1.57 1.47 1.45 1.43 1.42 1.42 1.43 1.43
1.19 1.18 1.19 1.14 1.07 1.09 1.14 1.29 1.28 1.31 1.34 1.45 1.49 1.51 1.59 1.58 1.59 1.59 1.62 1.66 1.72 1.74 1.76 1.81 1.79 1.81 1.87 1.84 1.82 1.84 1.83 1.83 1.83 1.81 1.82 1.79 1.75 1.74 1.72 1.73 1.74 1.73 1.71 1.71 1.72 1.73 1.70 1.63 1.59 1.60 1.59 1.54 1.58 1.47 1.45 1.44 1.43 1.42 1.42 1.46 1.46 1.46 1.52 1.50 1.51 1.45 1.46 1.43 1.49 1.49 1.50 1.51 1.51 1.55 1.62 1.57 1.57 1.56 1.47 1.43 1.43 1.43 1.44 1.43 1.43
1.22 1.22 1.23 1.20 1.11 1.12 1.07 1.28 1.31 1.34 1.33 1.38 1.48 1.49 1.55 1.58 1.57 1.57 1.59 1.59 1.74 1.76 1.76 1.78 1.80 1.82 1.82 1.84 1.82 1.82 1.83 1.82 1.82 1.83 1.82 1.82 1.83 1.80 1.77 1.76 1.78 1.75 1.72 1.70 1.71 1.73 1.70 1.66 1.56 1.57 1.59 1.55 1.58 1.53 1.45 1.46 1.46 1.43 1.42 1.37 1.40 1.45 1.45 1.45 1.39 1.40 1.40 1.38 1.41 1.45 1.49 1.54 1.57 1.56 1.55 1.54 1.55 1.58 1.56 1.53 1.50 1.50 1.46 1.44 1.44
1.23 1.23 1.25 1.24 1.20 1.21 1.13 1.22 1.29 1.32 1.35 1.36 1.42 1.53 1.56 1.55 1.55 1.53 1.52 1.55 1.66 1.78 1.79 1.74 1.76 1.79 1.82 1.78 1.76 1.81 1.80 1.83 1.84 1.84 1.82 1.84 1.83 1.83 1.80 1.77 1.83 1.75 1.73 1.70 1.68 1.70 1.71 1.64 1.60 1.54 1.54 1.59 1.56 1.57 1.47 1.44 1.47 1.47 1.36 1.32 1.32 1.31 1.37 1.36 1.37 1.39 1.42 1.41 1.41 1.42 1.50 1.53 1.54 1.55 1.61 1.61 1.54 1.54 1.54 1.57 1.64 1.63 1.59 1.48 1.47
1.26 1.24 1.26 1.24 1.20 1.27 1.20 1.21 1.24 1.29 1.37 1.35 1.36 1.43 1.49 1.44 1.41 1.48 1.47 1.47 1.55 1.63 1.73 1.72 1.74 1.76 1.76 1.74 1.76 1.80 1.80 1.81 1.84 1.85 1.83 1.81 1.80 1.81 1.78 1.80 1.80 1.80 1.71 1.72 1.68 1.69 1.63 1.62 1.55 1.54 1.49 1.48 1.49 1.51 1.49 1.41 1.42 1.37 1.29 1.31 1.28 1.30 1.32 1.37 1.35 1.37 1.41 1.45 1.48 1.51 1.52 1.56 1.58 1.56 1.54 1.57 1.50 1.50 1.50 1.51 1.53 1.52 1.56 1.58 1.50
1.31 1.27 1.22 1.22 1.18 1.24 1.22 1.19 1.21 1.26 1.31 1.29 1.26 1.30 1.38 1.37 1.41 1.40 1.38 1.42 1.46 1.56 1.59 1.67 1.70 1.72 1.73 1.77 1.74 1.78 1.77 1.79 1.82 1.85 1.80 1.77 1.79 1.80 1.79 1.79 1.81 1.77 1.75 1.74 1.75 1.72 1.69 1.66 1.58 1.55 1.50 1.41 1.42 1.41 1.40 1.45 1.37 1.33 1.35 1.24 1.25 1.33 1.34 1.30 1.34 1.38 1.38 1.46 1.50 1.51 1.51 1.54 1.55 1.55 1.57 1.51 1.52 1.52 1.54 1.58 1.56 1.56 1.57 1.57 1.61
1.30 1.29 1.20 1.20 1.18 1.22 1.23 1.24 1.23 1.22 1.28 1.30 1.28 1.29 1.36 1.40 1.35 1.37 1.41 1.42 1.40 1.44 1.49 1.59 1.66 1.70 1.67 1.70 1.73 1.78 1.78 1.79 1.80 1.83 1.82 1.81 1.77 1.73 1.75 1.77 1.72 1.74 1.75 1.76 1.75 1.72 1.69 1.72 1.65 1.55 1.52 1.46 1.37 1.45 1.38 1.33 1.22 1.16 1.16 1.17 1.28 1.30 1.30 1.33 1.36 1.35 1.38 1.38 1.44 1.46 1.46 1.49 1.51 1.52 1.54 1.52 1.54 1.59 1.59 1.58 1.56 1.55 1.56 1.54 1.50
1.36 1.31 1.27 1.20 1.18 1.17 1.26 1.28 1.27 1.22 1.25 1.31 1.31 1.27 1.32 1.42 1.41 1.39 1.43 1.46 1.48 1.49 1.55 1.60 1.65 1.67 1.64 1.63 1.70 1.74 1.77 1.80 1.82 1.80 1.83 1.80 1.77 1.75 1.74 1.74 1.75 1.72 1.66 1.65 1.70 1.69 1.70 1.70 1.72 1.62 1.49 1.44 1.39 1.38 1.36 1.48 1.24 1.22 1.23 1.22 1.14 1.16 1.21 1.28 1.30 1.29 1.33 1.34 1.36 1.38 1.41 1.46 1.38 1.47 1.45 1.49 1.52 1.59 1.52 1.49 1.48 1.47 1.49 1.46 1.45
1.38 1.33 1.30 1.22 1.18 1.16 1.24 1.29 1.31 1.28 1.26 1.31 1.31 1.34 1.38 1.45 1.48 1.51 1.47 1.53 1.46 1.51 1.55 1.61 1.62 1.63 1.58 1.62 1.64 1.73 1.77 1.83 1.82 1.83 1.82 1.80 1.79 1.78 1.76 1.73 1.74 1.73 1.69 1.64 1.64 1.66 1.68 1.67 1.71 1.66 1.50 1.42 1.38 1.35 1.42 1.41 1.37 1.25 1.08 1.14 1.11 1.18 1.00 1.04 1.15 1.21 1.29 1.25 1.32 1.39 1.41 1.42 1.45 1.39 1.44 1.43 1.46 1.44 1.41 1.44 1.45 1.46 1.46 1.44 1.41
1.40 1.37 1.32 1.25 1.19 1.16 1.21 1.28 1.33 1.33 1.32 1.34 1.33 1.39 1.41 1.42 1.48 1.52 1.50 1.47 1.53 1.48 1.44 1.45 1.52 1.53 1.57 1.57 1.62 1.70 1.79 1.82 1.87 1.82 1.82 1.81 1.84 1.82 1.78 1.76 1.77 1.74 1.74 1.67 1.64 1.70 1.66 1.70 1.67 1.56 1.53 1.52 1.41 1.34 1.36 1.40 1.36 1.39 1.30 1.20 1.15 1.07 1.05 1.10 1.21 1.09 1.29 1.27 1.31 1.39 1.30 1.36 1.38 1.32 1.35 1.38 1.35 1.39 1.38 1.39 1.36 1.41 1.42 1.42 1.45
1.45 1.44 1.42 1.37 1.28 1.23 1.22 1.26 1.34 1.38 1.38 1.40 1.39 1.41 1.38 1.33 1.37 1.38 1.30 1.29 1.26 1.31 1.27 1.29 1.38 1.44 1.47 1.63 1.66 1.72 1.78 1.82 1.87 1.87 1.85 1.85 1.83 1.82 1.79 1.79 1.77 1.72 1.70 1.74 1.71 1.63 1.54 1.64 1.62 1.61 1.52 1.45 1.51 1.39 1.26 1.35 1.36 1.35 1.40 1.38 1.33 1.21 1.15 1.19 1.21 0.92 1.21 1.27 1.29 1.28 1.26 1.32 1.33 1.30 1.31 1.38 1.32 1.36 1.31 1.34 1.31 1.39 1.40 1.39 1.37
1.52 1.54 1.49 1.44 1.40 1.36 1.30 1.25 1.27 1.34 1.42 1.47 1.44 1.41 1.38 1.32 1.33 1.37 1.37 1.33 1.28 1.33 1.41 1.43 1.49 1.55 1.58 1.60 1.68 1.74 1.77 1.80 1.86 1.85 1.85 1.84 1.84 1.83 1.80 1.79 1.81 1.76 1.72 1.70 1.64 1.62 1.66 1.64 1.66 1.60 1.57 1.57 1.46 1.40 1.32 1.32 1.34 1.39 1.45 1.45 1.42 1.39 1.34 1.23 1.07 1.07 0.98 1.10 1.30 1.30 1.27 1.27 1.31 1.31 1.33 1.35 1.34 1.32 1.28 1.27 1.34 1.37 1.36 1.37 1.43
1.60 1.57 1.52 1.48 1.45 1.43 1.42 1.35 1.30 1.30 1.40 1.48 1.49 1.45 1.37 1.33 1.32 1.34 1.42 1.42 1.37 1.37 1.40 1.44 1.58 1.63 1.57 1.60 1.65 1.70 1.75 1.78 1.87 1.82 1.83 1.80 1.79 1.79 1.78 1.79 1.76 1.78 1.73 1.68 1.68 1.72 1.74 1.69 1.67 1.72 1.64 1.54 1.54 1.43 1.45 1.52 1.35 1.36 1.48 1.47 1.41 1.37 1.31 1.29 1.27 1.18 1.05 1.00 1.05 1.26 1.32 1.25 1.35 1.31 1.32 1.33 1.31 1.28 1.28 1.28 1.31 1.34 1.39 1.45 1.49
1.63 1.59 1.56 1.54 1.54 1.52 1.49 1.46 1.37 1.32 1.37 1.45 1.47 1.47 1.41 1.39 1.35 1.34 1.38 1.49 1.51 1.49 1.50 1.46 1.54 1.60 1.57 1.57 1.62 1.69 1.70 1.75 1.80 1.81 1.76 1.77 1.77 1.78 1.75 1.73 1.75 1.74 1.68 1.73 1.71 1.71 1.68 1.70 1.62 1.60 1.56 1.55 1.55 1.56 1.44 1.45 1.54 1.47 1.42 1.46 1.45 1.36 1.28 1.23 1.20 1.20 1.13 1.09 1.06 1.09 1.07 1.16 1.31 1.26 1.29 1.36 1.34 1.37 1.35 1.31 1.23 1.35 1.44 1.48 1.51
1.66 1.66 1.64 1.62 1.60 1.58 1.51 1.46 1.40 1.38 1.37 1.40 1.42 1.43 1.41 1.42 1.37 1.35 1.34 1.41 1.49 1.51 1.52 1.44 1.46 1.56 1.50 1.54 1.61 1.64 1.67 1.69 1.76 1.77 1.77 1.77 1.78 1.76 1.75 1.73 1.71 1.74 1.71 1.78 1.76 1.73 1.70 1.68 1.66 1.68 1.69 1.64 1.65 1.56 1.51 1.53 1.55 1.57 1.45 1.37 1.38 1.36 1.28 1.19 1.18 1.17 1.17 1.20 1.05 1.06 1.09 1.09 1.10 1.13 1.28 1.29 1.26 1.29 1.28 1.31 1.41 1.46 1.48 1.52 1.53
1.70 1.67 1.65 1.63 1.62 1.60 1.56 1.47 1.44 1.44 1.43 1.40 1.38 1.37 1.40 1.41 1.38 1.37 1.36 1.38 1.44 1.46 1.43 1.42 1.43 1.48 1.45 1.49 1.56 1.60 1.63 1.68 1.74 1.75 1.77 1.78 1.79 1.76 1.73 1.73 1.75 1.77 1.69 1.71 1.71 1.72 1.74 1.71 1.74 1.73 1.67 1.67 1.63 1.62 1.56 1.55 1.54 1.45 1.43 1.35 1.39 1.34 1.28 1.21 1.14 1.18 1.21 1.12 1.10 1.13 1.14 1.12 1.13 1.16 1.16 1.20 1.23 1.20 1.27 1.34 1.43 1.45 1.51 1.53 1.54
Wind_Speed
17 17 18 18 17 17 17 17 18 18 17 17 16 16 15 14 13 12 12 11 10 10 9 8 8 8 8 8 8 8 8 8 8 7 7 7 7 7 7 7 6 6 6 5 5 5 5 5 6 6 7 7 7 7 7 7 7 7 7 7 7 8 10 11 12 12 13 13 13 13 13 13 13 14 14 14 14 14 14 13 13 13 13 13 13
18 18 18 18 17 17 17 18 18 17 17 17 16 15 14 14 13 12 11 11 10 9 9 8 8 8 9 9 9 8 8 8 8 8 8 8 8 8 8 7 7 7 6 6 6 6 5 5 6 6 6 6 7 7 7 7 7 8 8 8 8 8 9 12 12 13 13 13 13 13 13 13 13 13 14 14 13 13 13 13 13 13 13 13 13
19 19 18 18 18 17 17 18 18 17 16 16 15 15 14 13 12 12 11 10 10 9 9 8 8 9 9 9 9 9 8 8 9 9 9 9 9 9 9 8 8 7 7 7 7 6 6 6 7 6 6 6 6 7 7 7 7 8 8 8 9 8 9 11 12 13 13 13 13 13 13 13 13 13 14 13 13 13 13 13 13 13 13 12 12
19 19 18 18 18 17 17 17 17 16 16 15 15 14 13 12 12 11 11 10 10 9 9 8 9 9 10 10 9 9 9 9 10 10 10 10 10 10 9 9 9 8 8 8 8 7 7 7 7 7 7 7 7 7 7 7 8 9 9 9 10 10 10 11 13 13 13 13 13 13 13 13 13 13 14 14 13 13 13 13 13 13 13 12 12
18 18 18 18 18 17 17 17 16 15 15 14 14 13 13 12 11 11 11 10 9 9 9 9 10 10 10 10 10 10 10 10 10 10 11 11 10 10 10 10 9 9 9 8 8 8 7 7 7 7 7 8 8 8 8 9 9 10 10 10 10 11 11 12 13 13 13 13 12 12 13 13 13 13 13 13 13 13 13 13 13 13 13 12 12
18 18 18 18 18 17 17 16 15 15 14 14 13 13 12 12 11 11 10 10 9 9 10 10 10 10 10 10 10 11 11 11 11 11 11 11 11 10 10 10 10 10 9 9 9 8 7 7 7 7 8 8 8 9 9 10 10 11 11 11 11 12 12 12 13 13 13 12 12 12 13 13 13 13 13 13 13 13 13 13 13 12 12 12 12
17 17 17 17 17 17 17 16 15 15 14 13 13 12 12 12 11 11 10 9 9 10 11 10 10 10 10 10 10 11 12 11 11 11 11 11 11 11 10 10 10 10 10 9 9 8 8 8 8 8 8 9 9 10 10 11 11 12 12 12 12 12 12 13 13 12 12 12 13 13 12 13 13 13 13 13 13 13 13 13 12 12 12 11 11
17 17 17 17 17 17 16 15 15 14 14 13 13 12 12 11 11 10 10 10 10 11 11 10 10 10 10 10 11 11 12 12 12 11 11 11 11 11 11 10 10 10 10 10 9 9 8 8 9 9 9 10 10 10 11 12 12 12 12 13 13 13 13 13 13 12 12 12 13 13 13 13 13 13 13 13 13 13 12 12 12 12 11 11 11
17 17 16 16 16 16 15 15 14 14 13 13 12 12 11 11 10 10 10 10 11 11 11 10 11 11 11 11 11 11 12 12 12 11 11 11 11 11 11 11 11 11 11 10 10 10 10 9 10 10 11 11 11 11 12 13 13 13 13 13 14 13 13 13 13 13 13 13 13 13 13 13 13 13 13 12 12 12 12 12 11 11 11 11 11
17 16 16 16 16 15 15 14 14 13 13 12 12 11 11 11 10 10 10 11 11 11 11 11 11 11 11 11 11 11 12 12 12 12 11 11 11 11 11 11 11 11 11 11 11 11 11 11 11 11 12 12 12 12 13 13 13 13 13 14 14 14 14 13 13 13 13 14 14 13 13 13 13 13 12 12 12 11 11 11 11 11 11 11 11
16 16 16 16 15 15 14 14 13 13 12 12 12 11 11 11 11 10 10 11 11 11 11 11 11 11 12 12 12 12 12 12 12 12 12 12 12 12 12 12 12 12 12 12 12 12 12 12 12 12 13 13 13 14 14 14 14 14 14 14 14 14 14 14 14 13 13 13 13 13 13 13 13 13 12 12 11 11 11 11 11 11 11 11 11
16 16 15 15 15 14 14 13 13 12 12 12 12 11 11 11 11 11 11 11 11 11 11 11 11 12 12 12 12 12 12 12 12 12 12 12 12 12 12 13 13 13 13 13 14 14 14 13 14 14 14 14 15 15 15 15 15 16 15 15 15 14 14 14 14 13 13 13 13 13 13 13 13 13 12 12 12 12 12 12 12 11 11 11 11
15 15 15 15 15 14 14 13 13 12 12 12 12 11 11 11 11 11 11 11 12 11 11 11 12 12 12 12 12 13 13 13 13 12 13 13 13 13 13 13 14 14 14 14 15 15 15 15 15 15 16 16 16 16 16 16 16 16 16 15 15 15 14 14 14 13 13 12 12 13 13 13 13 12 12 12 12 12 12 12 12 11 11 11 11
15 15 15 14 14 14 13 13 12 12 12 12 12 11 12 12 11 11 11 11 12 12 12 12 12 12 12 12 13 13 13 13 13 13 13 13 13 13 13 14 14 15 15 15 16 16 16 16 16 16 16 16 16 16 17 17 17 16 16 15 15 15 14 14 14 13 13 13 13 12 12 13 13 13 13 12 12 12 12 12 12 12 12 12 12
15 15 14 14 14 14 13 13 12 12 12 12 11 11 12 12 12 11 11 12 12 13 12 12 12 12 12 13 13 13 13 13 13 13 13 13 13 13 13 14 15 15 16 16 16 16 16 17 17 17 17 17 17 17 17 17 16 16 15 15 14 14 14 14 13 13 13 13 13 13 13 13 13 13 12 12 12 12 12 12 12 12 13 13 13
15 14 14 14 14 13 13 12 12 12 12 11 11 12 12 12 12 12 12 12 13 13 13 13 13 13 13 13 13 14 13 13 13 13 14 13 13 13 14 14 15 16 16 16 16 17 17 17 17 17 17 17 17 17 17 16 16 15 15 15 14 14 14 13 13 13 12 13 13 13 13 13 13 12 12 12 13 13 13 13 13 13 13 13 13
14 14 14 13 13 13 12 12 12 12 11 12 12 12 12 12 12 12 12 13 13 13 13 13 13 13 13 14 14 14 14 14 14 14 14 14 14 14 14 14 15 16 16 16 17 17 17 17 17 17 17 17 17 17 17 16 15 15 15 14 14 13 13 13 13 12 12 12 12 12 12 12 12 12 12 13 13 13 13 13 13 13 13 13 13
14 13 13 13 13 12 12 12 12 12 12 12 12 12 12 12 12 12 13 13 13 13 14 13 13 13 14 14 14 14 14 14 14 14 14 14 14 14 14 14 15 16 16 16 17 17 17 17 18 18 17 17 17 16 16 16 15 15 14 14 13 13 13 13 13 12 12 12 12 12 12 13 12 12 13 13 13 13 13 13 13 13 13 13 12
13 13 13 13 12 12 12 11 11 12 12 12 12 12 12 12 12 13 13 13 14 14 14 14 14 14 14 14 14 14 14 14 14 14 14 14 14 14 14 14 15 15 16 16 17 17 17 17 17 18 17 17 17 16 16 15 15 14 14 13 13 13 12 12 13 12 12 12 12 12 13 13 13 13 13 13 13 13 12 12 12 12 12 12 11
13 13 13 12 12 12 12 11 12 12 12 12 12 12 12 12 12 13 13 13 14 14 14 15 14 14 14 14 14 14 14 14 14 14 14 14 14 14 14 14 15 15 16 16 16 17 17 17 17 17 17 17 17 16 16 15 15 14 14 13 13 12 12 12 12 12 12 12 12 12 13 13 13 12 12 12 12 12 11 11 11 11 11 11 11
13 13 12 12 12 12 12 12 12 12 12 12 12 12 12 12 12 13 13 14 14 14 14 15 15 15 15 14 14 14 14 14 14 14 14 14 14 14 15 15 15 15 15 16 16 16 17 17 17 17 17 17 17 16 15 15 14 14 13 13 12 12 12 12 12 13 13 13 12 12 12 12 12 12 12 11 11 11 11 11 11 10 10 10 10
13 13 12 13 12 12 12 12 12 13 13 12 12 12 12 12 12 13 13 13 14 14 14 14 15 15 15 14 14 14 14 14 14 14 14 14 14 14 14 14 14 15 15 15 16 16 16 16 16 16 16 16 16 16 15 15 14 14 13 12 12 12 12 12 12 13 12 12 12 12 12 11 11 11 11 11 10 10 10 10 10 10 10 10 10
13 13 13 13 12 12 12 12 12 13 13 12 12 12 12 12 12 12 12 13 13 14 14 14 14 15 14 14 14 14 14 14 14 14 14 14 14 14 14 14 14 15 15 15 15 15 15 16 16 16 15 15 15 15 14 14 14 13 13 12 12 13 13 13 13 12 12 12 12 11 11 11 11 10 10 10 10 10 10 10 9 9 9 10 10
13 13 13 12 12 12 12 12 12 13 12 12 12 12 12 12 12 12 12 13 13 14 14 14 14 14 15 15 15 15 15 15 14 14 14 14 14 14 14 14 14 14 15 15 14 14 14 15 15 14 14 14 14 14 14 14 14 13 13 13 13 13 13 13 12 12 12 11 11 11 10 10 10 10 9 9 9 9 9 9 9 9 10 10 10
13 13 13 13 12 12 12 12 12 12 12 12 12 12 12 12 12 12 12 13 13 13 13 14 14 14 14 15 15 15 15 14 14 14 14 13 13 13 13 13 13 13 13 13 13 13 13 14 14 14 14 14 14 14 14 14 14 14 13 13 13 13 13 12 12 12 11 11 11 10 10 10 9 9 9 9 9 9 9 9 10 10 10 10 10
13 13 13 13 13 13 13 12 12 12 12 12 12 12 12 12 12 12 12 13 13 13 13 13 13 13 14 14 14 14 14 14 14 14 14 13 13 12 12 12 12 12 12 12 12 12 13 13 13 14 14 14 14 14 14 14 14 14 14 13 13 13 13 12 12 12 11 11 10 10 10 10 9 9 9 9 9 9 9 9 10 10 10 10 10
13 13 13 13 13 13 13 12 12 12 12 12 12 12 12 12 12 12 12 13 13 13 13 13 13 13 13 13 13 14 14 14 14 14 14 13 13 13 12 12 12 12 12 12 12 12 13 13 13 13 13 13 14 14 14 14 14 13 13 13 13 13 12 12 12 11 11 11 11 10 10 10 9 9 9 9 9 9 9 9 9 9 9 9 9
13 13 13 13 13 13 13 12 12 12 12 12 12 12 12 12 12 12 12 13 12 12 12 13 13 12 13 13 13 13 13 13 13 13 13 13 13 13 12 12 12 12 12 12 12 12 12 13 13 13 13 13 13 13 13 13 13 13 12 12 12 12 12 11 11 11 11 11 11 11 10 10 9 9 9 8 8 9 9 9 9 9 9 9 9
13 13 13 13 13 13 13 12 12 12 12 12 12 12 12 12 12 12 12 12 12 12 12 12 12 12 12 12 12 12 12 12 13 13 13 13 13 12 12 12 12 12 12 12 12 12 12 12 12 12 12 12 12 12 12 12 12 12 12 12 12 12 12 11 11 11 11 11 11 11 10 9 9 8 8 8 8 8 9 9 9 9 9 9 10
13 13 13 13 13 13 13 12 12 12 12 12 12 12 12 12 12 12 12 12 11 11 11 11 11 11 11 11 11 11 12 12 12 12 12 12 12 12 12 12 12 11 11 11 11 11 11 11 11 12 12 11 12 11 11 11 11 11 11 11 11 11 11 11 11 11 10 10 10 10 10 9 9 8 8 8 8 8 8 9 9 9 9 10 10
13 13 13 13 13 13 13 12 12 12 12 12 12 12 12 12 12 12 12 11 11 11 10 10 10 11 11 11 11 11 11 11 11 11 11 11 11 11 11 11 11 11 11 11 11 11 11 11 11 11 11 11 11 11 10 10 11 11 11 11 11 10 10 10 10 10 10 10 9 9 9 9 8 8 8 8 8 8 8 9 9 9 10 10 10
13 13 13 13 13 13 13 13 12 12 12 12 12 12 12 12 12 11 11 11 11 10 10 10 10 10 10 10 10 10 11 11 11 11 11 10 10 10 10 11 11 11 11 11 11 11 11 11 11 11 10 10 10 10 10 10 10 10 10 10 10 10 10 9 9 9 9 9 9 9 8 8 8 8 8 8 8 8 8 9 9 9 10 10 10
13 13 13 13 13 13 13 13 13 13 13 12 12 12 12 12 12 11 11 11 10 10 10 9 10 10 10 10 10 10 10 10 10 10 10 10 10 10 10 10 10 10 10 10 10 10 10 10 10 10 10 9 10 9 9 9 9 9 9 9 9 9 9 9 9 9 9 9 8 8 8 8 8 8 9 9 9 9 9 9 9 10 10 10 10
12 13 13 13 13 13 13 13 13 13 13 13 12 12 12 12 11 11 11 11 10 10 9 9 9 9 9 9 9 9 9 9 9 10 10 9 9 9 9 9 9 10 10 10 9 9 9 9 9 9 9 9 9 9 9 9 8 8 8 8 8 8 8 8 8 8 8 8 8 8 8 8 8 8 9 9 10 10 10 10 10 10 11 11 11
13 13 13 13 13 13 13 13 13 13 13 13 12 12 12 12 11 11 11 10 10 10 9 9 9 9 9 8 8 9 9 9 9 9 9 9 9 9 9 9 9 9 9 9 9 8 8 8 8 8 8 8 8 8 8 8 8 8 8 8 8 8 8 8 8 8 8 8 8 8 8 8 8 9 9 9 10 10 10 11 11 11 11 11 10
13 13 13 13 13 13 13 13 14 14 14 13 13 12 12 12 11 11 11 10 10 9 9 8 8 8 8 8 8 8 8 8 8 8 9 9 9 9 8 9 9 9 9 9 8 8 8 7 7 7 7 7 8 8 8 8 8 8 7 7 7 7 7 7 7 7 8 8 8 8 8 9 9 9 9 10 10 11 11 11 11 11 11 10 10
13 13 13 13 13 13 14 13 14 14 14 14 13 13 12 12 11 11 11 10 10 9 8 8 8 8 8 8 8 8 8 8 8 8 8 8 8 8 8 8 8 8 8 8 8 7 7 7 7 7 7 7 7 7 7 7 7 7 7 7 7 7 7 7 7 7 7 8 8 8 8 8 9 9 10 10 11 11 11 11 11 11 10 10 10
14 14 14 14 13 13 14 14 14 14 14 14 14 13 13 12 11 11 10 10 9 9 8 8 7 7 7 7 8 8 8 8 8 8 7 7 7 7 8 8 8 8 8 8 7 7 7 7 7 7 7 6 6 7 7 7 7 7 7 7 7 7 7 7 7 7 7 7 8 8 8 8 9 10 10 10 11 11 11 11 11 11 10 10 10
14 14 14 14 14 14 14 14 14 15 14 14 14 13 13 12 11 11 10 10 9 9 8 8 7 7 7 7 7 7 7 7 7 7 7 7 6 6 7 7 7 7 7 7 7 7 7 7 6 6 6 6 6 6 6 7 7 6 6 7 7 7 7 7 7 7 7 7 8 8 8 9 9 10 11 11 11 11 11 11 11 10 10 10 10
15 15 15 14 14 14 14 14 14 15 14 14 13 13 12 12 11 11 10 10 10 9 8 8 7 7 7 7 7 7 7 7 7 7 7 6 6 6 6 6 6 6 6 7 7 7 7 7 6 6 6 6 6 6 6 6 6 6 6 6 6 6 6 6 6 7 7 7 8 8 8 9 10 10 11 11 11 11 11 11 11 10 10 10 10
15 15 15 15 15 15 14 14 15 15 15 14 14 13 13 12 12 11 10 10 10 9 9 8 7 7 7 7 7 7 7 7 7 6 6 6 6 6 6 6 6 6 6 6 6 6 6 6 6 6 6 6 6 6 6 6 6 5 5 5 6 6 6 6 6 6 7 7 8 8 9 9 10 11 11 11 11 11 11 11 10 10 10 10 10
16 16 16 15 15 15 15 15 15 15 16 15 14 14 13 13 12 11 11 10 10 10 9 8 7 7 7 7 7 7 7 6 6 6 6 6 6 5 5 6 6 6 6 6 6 6 6 6 6 6 6 6 6 6 6 6 5 5 5 5 6 6 6 6 6 6 7 7 8 8 9 9 10 10 10 10 11 11 10 10 10 9 9 10 10
16 17 16 16 16 16 15 15 15 16 16 16 15 14 14 13 12 12 11 10 10 10 9 9 8 7 7 7 7 7 7 6 6 6 6 6 6 6 5 5 5 6 6 6 6 6 6 6 5 5 6 6 6 6 6 5 5 5 5 5 6 6 6 6 6 7 7 8 8 9 9 10 10 10 10 10 10 10 10 9 9 9 9 9 9
16 17 17 16 16 16 16 16 16 16 16 16 16 15 14 14 13 12 12 11 10 10 10 9 9 8 7 7 7 7 7 6 6 6 6 6 6 6 6 5 6 6 6 6 6 6 6 5 5 5 6 6 6 6 6 6 6 5 5 5 6 6 6 6 7 7 8 8 8 9 9 9 10 10 10 10 10 10 9 9 9 9 9 9 9
17 16 17 16 16 16 16 16 16 16 16 16 16 15 14 14 13 12 12 11 11 10 10 10 9 9 8 8 8 7 7 7 7 6 6 6 6 6 6 6 6 6 6 6 6 6 6 5 5 6 5 5 6 6 6 5 5 5 5 5 6 6 6 6 7 7 8 9 9 9 9 9 10 10 10 10 10 9 9 9 8 8 9 9 9
17 17 17 17 16 16 16 16 16 16 16 17 17 16 15 14 14 13 12 12 11 11 11 10 10 10 9 8 8 8 7 7 7 7 7 6 6 6 6 6 6 6 6 6 6 6 5 5 6 6 6 5 5 6 6 6 5 6 6 6 6 6 6 6 7 8 8 9 9 10 10 9 10 10 10 10 9 9 9 8 8 8 8 9 9
18 17 17 17 17 16 16 17 16 16 16 17 17 16 15 15 15 14 13 13 12 12 11 11 10 10 9 9 8 8 8 8 7 7 7 7 6 6 6 6 6 6 6 6 6 5 6 6 6 6 6 6 5 5 6 6 6 6 6 6 6 6 6 6 7 9 9 9 9 9 9 9 10 10 10 9 9 9 9 8 8 8 8 8 8
19 18 18 18 18 17 16 16 16 16 16 17 17 17 16 16 15 15 14 13 13 12 12 12 11 11 10 9 9 8 8 8 8 7 7 7 6 6 6 6 6 6 6 5 5 5 6 6 6 6 6 6 6 5 6 6 5 6 6 6 6 6 7 7 8 8 9 9 9 9 9 9 10 10 9 9 9 9 8 8 8 8 8 8 8
19 19 18 18 18 18 17 17 16 16 16 17 17 17 17 16 16 15 15 14 13 13 12 12 12 11 11 10 9 9 9 8 8 8 8 7 7 6 6 6 6 6 6 5 5 6 6 5 5 6 6 6 6 5 5 5 5 6 6 6 6 6 7 7 8 8 9 9 9 9 9 9 9 9 8 8 8 8 8 7 7 7 7 7 7
20 20 19 18 19 18 18 18 17 16 17 17 17 18 17 17 16 16 15 15 14 13 13 13 13 12 12 11 10 9 9 9 8 8 8 7 7 7 6 6 6 6 6 5 5 6 5 5 5 5 6 6 6 6 5 5 5 6 6 6 6 7 7 7 8 8 9 9 8 8 9 9 9 9 8 7 7 7 7 7 7 7 7 6 7
20 20 20 19 19 19 19 18 18 17 17 17 18 18 18 17 17 17 16 15 15 14 14 14 13 13 13 12 11 10 10 9 9 8 8 8 7 7 7 6 6 6 6 5 5 5 5 5 5 5 6 6 6 6 6 5 6 6 6 6 6 7 7 7 8 8 8 8 8 7 8 8 8 8 8 7 7 6 6 6 6 6 6 5 6
Wind_Direction
120 121 122 123 121 121 120 120 118 117 116 116 116 115 115 112 111 110 109 109 108 106 103 101 99 102 105 109 110 110 111 110 109 107 106 106 107 107 106 107 106 107 110 108 106 107 102 99 103 107 112 114 115 112 111 110 107 103 101 102 99 98 101 102 103 101 99 99 99 98 98 98 98 98 97 95 94 92 93 95 96 96 95 94 91
121 122 122 123 122 121 120 120 118 117 116 115 114 112 112 110 109 109 109 108 105 103 99 99 100 103 106 108 108 107 108 107 106 104 104 104 105 105 105 105 104 105 108 107 103 106 108 110 111 109 111 114 116 115 112 110 106 104 103 104 101 102 103 103 104 102 100 99 99 99 99 98 99 98 97 96 93 92 91 94 95 96 95 93 90
121 122 122 123 122 121 121 121 119 117 115 113 112 111 110 109 108 107 105 104 101 99 97 98 100 100 100 100 102 103 104 105 103 103 103 103 103 102 104 103 101 101 101 102 102 106 108 109 112 111 113 113 114 114 113 109 106 106 107 107 105 106 104 104 105 103 101 100 99 98 98 98 99 99 98 96 93 92 91 92 94 95 95 92 90
122 121 120 121 121 121 122 120 119 117 115 113 112 110 109 107 105 103 101 100 98 96 95 96 94 91 91 95 98 101 104 104 103 102 102 101 101 100 100 98 97 97 96 97 99 102 104 107 110 112 112 111 112 112 112 110 108 108 108 108 107 107 106 104 104 103 102 101 100 100 100 100 100 99 98 96 94 92 90 91 93 93 93 91 90
122 122 120 121 121 120 121 120 119 118 116 113 111 109 106 104 102 100 99 98 95 94 92 89 88 89 93 97 100 102 104 105 104 103 102 100 100 98 96 95 93 93 93 94 96 98 102 107 110 111 111 110 112 112 113 110 108 109 108 108 106 107 107 105 104 102 101 100 101 101 102 102 101 99 98 96 94 91 89 90 92 92 92 91 90
123 123 122 122 121 120 120 121 121 119 116 113 110 107 105 104 102 99 97 95 94 91 87 85 88 94 98 100 101 103 104 105 105 103 102 100 99 96 94 93 91 90 90 91 93 96 103 106 107 108 110 111 111 113 114 111 109 110 110 109 108 109 108 106 104 102 99 98 99 100 102 102 101 100 98 96 93 90 88 89 92 93 92 91 90
122 123 121 121 121 121 122 122 121 118 115 112 109 106 105 103 100 97 95 94 92 88 86 87 91 96 98 100 102 102 103 104 104 103 102 100 97 94 92 91 89 89 88 88 89 94 100 103 104 106 110 110 110 113 114 113 111 112 112 111 111 111 109 106 104 102 100 97 98 100 101 101 100 99 99 96 93 89 87 89 92 92 92 91 89
123 123 121 122 122 122 122 121 120 118 115 112 109 107 105 102 99 96 95 94 91 88 87 90 93 96 99 100 102 103 103 103 102 101 101 99 95 92 89 88 88 87 86 86 87 91 95 99 103 105 108 109 111 113 113 112 112 112 113 112 112 111 109 107 105 102 100 98 97 98 99 99 99 99 99 96 92 88 87 89 92 92 90 89 87
124 123 122 123 122 121 120 120 119 118 115 111 109 108 106 102 100 96 95 94 90 88 89 92 94 96 99 101 104 105 104 104 102 101 100 97 94 91 88 86 86 85 85 86 87 89 92 96 102 104 107 109 111 112 112 112 112 113 113 112 111 110 109 106 105 103 101 98 97 98 99 100 100 98 97 95 91 87 87 88 91 91 89 87 84
124 124 123 122 122 121 121 120 119 117 114 111 110 108 106 103 99 96 96 94 90 89 90 93 94 94 98 101 103 105 104 104 103 101 99 96 94 91 88 86 85 83 82 82 84 87 91 96 101 103 106 109 111 111 112 112 113 113 112 111 110 109 108 106 104 102 100 98 98 98 99 100 98 97 96 93 90 87 86 87 89 89 87 86 83
125 124 123 123 123 122 122 120 118 116 113 112 110 109 106 102 98 97 97 94 91 90 92 92 92 94 96 99 102 104 104 104 103 102 100 97 94 91 88 87 83 80 79 80 83 87 90 95 99 102 105 108 110 110 111 112 112 112 112 111 110 109 108 107 104 101 99 97 97 97 96 97 96 95 94 91 88 87 86 87 88 88 87 85 84
126 124 123 124 124 123 122 119 118 116 114 113 111 108 104 99 97 98 97 93 91 90 91 92 92 93 96 98 100 103 104 103 101 101 100 98 95 92 89 86 83 79 79 83 86 88 91 95 98 101 104 107 109 109 110 111 111 111 110 110 109 108 107 105 103 101 99 96 95 95 95 95 95 94 92 90 88 88 88 88 88 86 86 85 84
127 125 124 125 125 123 121 119 119 117 115 113 110 107 102 99 97 98 96 93 92 91 91 92 93 94 96 98 100 103 103 101 100 100 99 98 96 93 89 86 83 80 81 85 86 88 92 95 97 99 102 104 106 108 109 110 111 110 110 109 108 107 105 103 101 100 97 95 93 93 93 94 94 93 92 90 90 89 88 88 87 87 85 84 83
128 126 126 126 125 123 121 120 119 117 114 112 109 105 102 100 97 96 94 93 93 92 91 92 93 94 96 98 101 102 102 101 101 101 100 99 97 94 90 87 83 81 83 85 86 88 91 94 96 98 101 103 105 107 109 110 110 111 110 109 108 107 104 101 99 97 96 94 93 92 93 94 94 94 93 91 91 89 88 87 87 87 85 84 83
129 128 127 127 126 124 122 121 118 116 113 111 108 105 103 100 96 94 93 93 93 92 92 92 93 94 96 99 102 102 102 102 101 101 101 101 99 95 92 89 86 84 85 87 87 89 91 94 95 97 100 102 104 106 108 109 111 111 110 108 107 105 102 99 98 97 96 95 94 94 95 96 96 95 94 92 91 89 88 87 87 87 86 85 84
129 129 128 128 126 125 123 121 117 114 113 111 109 106 104 100 96 94 93 93 92 92 93 93 93 95 97 99 102 103 102 102 101 102 102 102 100 97 93 91 89 86 87 88 88 89 91 93 95 96 98 101 104 106 108 109 110 109 108 106 105 103 101 98 98 98 98 97 96 96 97 97 97 96 94 92 91 89 88 88 87 87 86 86 85
130 129 128 127 125 124 123 121 118 115 114 112 110 108 104 100 97 94 93 93 93 93 93 93 94 95 97 98 101 102 103 103 103 102 102 102 100 97 95 93 90 88 88 89 90 90 91 93 95 96 98 100 103 106 108 109 109 107 105 105 104 102 100 98 98 99 99 98 97 97 98 98 97 96 94 93 91 90 89 88 88 86 85 85 84
132 130 129 127 125 124 123 122 120 118 117 114 111 107 103 100 97 95 94 93 94 94 94 94 94 96 98 99 101 102 104 105 104 103 102 101 99 97 96 94 91 89 89 90 91 91 92 93 95 96 97 99 101 104 106 108 107 105 104 103 103 101 99 98 98 100 99 98 98 98 99 98 97 95 94 94 92 91 89 88 88 86 85 84 82
134 132 131 129 127 126 125 124 123 121 118 115 112 107 104 101 98 96 95 95 95 95 95 95 94 96 98 100 102 104 106 107 106 104 103 100 99 98 97 96 93 91 90 90 91 92 92 93 95 96 96 98 100 103 105 106 105 103 103 103 102 100 98 98 98 99 99 98 99 99 99 99 97 96 95 95 93 90 88 88 88 87 84 82 81
137 135 134 133 131 129 128 126 125 123 119 115 112 108 106 103 100 98 97 96 96 95 96 96 96 97 98 100 103 105 107 107 107 105 103 101 99 98 98 98 95 92 92 91 91 92 93 94 95 96 97 99 100 101 102 103 103 103 102 102 101 99 97 97 98 98 98 98 99 99 100 99 98 97 96 94 92 90 88 88 87 85 82 81 79
141 139 138 136 134 133 130 128 126 122 120 117 112 110 108 106 102 101 99 98 97 96 96 97 98 98 99 101 103 105 106 107 106 105 104 101 99 98 99 100 97 94 93 93 93 93 94 95 96 97 97 98 98 98 99 100 101 101 101 100 98 97 97 97 97 97 97 98 98 100 101 100 98 97 96 93 91 88 87 86 85 83 80 79 78
145 143 141 139 137 136 133 129 126 122 120 117 114 112 110 108 106 104 101 99 98 97 96 96 97 98 99 99 101 103 104 106 106 106 104 103 101 98 99 100 98 96 95 95 95 94 94 95 96 97 97 98 97 97 98 98 99 98 98 98 97 97 97 97 96 97 97 98 98 99 100 99 98 97 95 93 90 87 86 85 83 80 78 77 76
147 145 143 143 140 137 135 130 126 124 122 118 116 115 113 111 108 107 104 102 100 99 97 97 96 97 98 97 99 101 102 103 104 104 104 104 102 100 100 100 99 97 97 97 97 96 96 96 97 97 98 98 97 96 97 97 96 96 96 96 96 97 97 96 96 96 97 97 98 99 99 99 99 98 96 93 90 87 85 83 81 79 77 76 74
148 146 144 144 142 139 137 132 128 126 124 121 118 117 116 114 111 109 107 105 103 102 100 98 98 98 98 98 99 100 101 102 103 104 105 105 104 103 102 101 99 98 99 99 98 98 97 97 97 97 97 97 97 97 97 97 96 96 96 96 96 96 96 96 96 96 96 97 98 100 100 100 99 98 96 93 90 87 84 82 80 79 76 74 72
149 147 146 146 144 142 139 135 131 129 127 124 122 120 119 117 115 112 109 108 106 105 103 101 100 100 100 100 100 100 101 102 104 104 105 105 106 106 105 103 101 100 99 98 98 98 97 95 95 95 95 96 97 97 98 98 98 98 98 97 96 96 96 96 96 96 96 96 97 100 100 99 97 96 95 92 90 87 84 81 79 77 75 72 71
151 149 148 148 147 145 143 139 134 132 130 127 125 124 123 120 117 115 112 111 110 108 106 104 103 102 102 102 102 102 102 102 103 104 104 105 105 105 106 105 104 102 100 98 98 97 95 94 93 93 94 96 96 97 98 99 99 98 97 96 95 95 95 95 95 94 94 93 94 96 98 97 96 95 93 92 88 85 83 80 78 76 74 71 70
153 151 151 150 150 147 145 143 138 135 133 131 129 127 125 123 120 117 116 114 112 110 107 107 106 105 105 104 104 103 103 103 103 104 104 103 103 103 104 105 105 104 102 101 99 98 97 96 95 95 96 96 96 97 98 97 97 96 95 95 94 94 94 94 93 93 92 91 92 94 96 96 95 94 92 90 87 83 81 79 77 75 74 72 71
154 153 154 154 152 150 149 146 142 139 136 134 132 131 128 126 124 120 119 117 114 112 110 110 108 107 107 106 106 105 105 104 104 105 104 103 102 102 103 103 104 104 103 103 101 100 99 98 98 98 98 98 97 97 97 96 95 95 94 94 94 94 94 94 93 92 92 91 91 91 93 94 93 92 90 88 85 84 81 79 77 76 74 73 73
156 155 155 156 155 154 153 150 145 143 140 138 135 134 132 129 127 124 122 119 115 113 113 112 111 110 109 109 108 107 107 106 106 106 105 104 102 102 102 102 103 104 104 104 103 102 101 100 100 99 99 98 97 97 96 96 95 94 94 94 95 94 94 93 92 92 92 91 91 90 91 91 91 90 88 87 86 84 83 81 79 78 77 76 75
158 157 157 158 159 157 156 152 149 147 144 142 139 137 135 133 130 128 126 122 118 116 115 114 113 112 111 110 110 109 108 108 108 107 106 105 103 102 102 103 103 103 104 104 104 104 103 102 101 100 98 98 97 96 96 96 96 95 95 96 96 95 94 93 92 91 90 90 90 90 89 89 88 87 87 88 87 85 84 84 82 80 80 79 78
159 159 159 160 161 160 159 156 153 151 148 145 143 141 139 136 134 132 130 127 123 121 119 117 115 113 113 112 111 110 109 109 109 108 107 105 103 103 103 104 104 104 105 105 106 105 104 103 102 101 99 98 97 96 96 97 97 97 96 96 97 96 94 93 92 91 90 88 88 88 87 87 86 86 87 88 87 87 87 87 85 84 83 82 81
161 162 161 162 163 162 162 159 156 155 152 149 146 145 143 140 138 136 135 132 129 126 122 120 117 115 114 114 113 111 110 110 110 108 107 106 105 104 104 105 105 106 106 106 106 106 105 104 103 101 99 98 98 97 97 98 98 98 98 97 96 95 94 94 92 91 90 88 88 89 88 87 87 88 89 90 89 90 90 90 89 87 86 85 84
162 163 164 165 164 164 164 163 160 158 155 152 150 149 147 145 143 141 139 136 134 129 126 123 120 118 116 115 115 113 113 112 111 110 108 106 106 106 105 106 107 107 107 107 107 105 104 103 103 101 99 99 99 98 97 97 97 98 98 96 95 94 93 93 92 91 91 89 89 90 88 88 90 91 93 94 94 95 94 93 92 90 89 87 84
164 165 167 168 166 165 166 166 164 161 159 157 154 153 151 150 147 144 142 140 137 132 129 127 123 122 119 117 117 116 115 115 113 112 109 108 108 107 107 107 109 110 110 109 108 106 105 103 103 102 101 101 99 98 97 96 97 98 97 95 93 92 92 92 92 91 91 90 89 89 88 89 91 92 94 96 97 99 98 96 94 92 90 87 83
166 168 168 170 169 168 167 168 167 165 163 161 159 157 155 154 151 148 146 143 140 136 133 131 128 125 122 120 119 119 118 117 115 114 112 111 110 109 109 109 111 112 112 112 110 109 107 105 105 104 104 103 101 99 98 97 98 98 96 94 93 92 92 93 93 92 92 91 90 89 90 92 94 94 94 95 98 100 99 97 96 93 89 86 81
169 170 170 172 172 171 171 170 171 168 167 165 163 161 159 159 156 152 150 147 143 140 137 134 131 128 124 123 123 123 122 120 118 116 114 113 112 111 111 111 112 112 113 114 112 111 110 108 107 106 106 106 103 101 99 99 99 98 96 94 94 93 93 94 94 93 92 92 91 91 93 95 95 94 95 97 99 101 99 97 95 92 89 85 82
174 174 174 175 174 174 175 173 174 172 170 168 166 164 163 163 161 157 155 152 149 145 142 138 134 132 128 126 125 126 126 124 121 119 118 116 114 114 113 113 113 113 114 114 114 113 111 111 111 111 110 108 107 104 102 102 101 99 97 96 95 95 95 95 95 94 93 93 94 96 97 97 96 95 97 100 101 100 98 96 94 92 89 86 82
178 178 177 178 177 177 178 177 177 176 174 171 169 168 166 166 166 163 160 159 155 150 147 142 138 136 133 129 128 128 128 128 126 123 123 120 117 117 116 115 115 115 115 115 116 115 114 114 114 115 114 111 109 107 105 104 102 100 97 96 96 97 97 97 97 97 95 94 96 100 102 100 99 100 102 103 102 100 97 97 96 93 90 86 81
183 181 181 181 180 180 181 180 180 179 178 176 174 173 170 170 171 169 167 166 162 157 154 148 143 140 137 134 132 131 132 131 131 130 128 125 122 120 120 119 119 119 118 118 118 118 117 116 116 117 118 115 112 109 108 107 105 101 98 97 98 98 97 98 99 99 98 98 99 102 105 104 103 103 103 103 102 100 98 97 96 93 89 85 80
186 185 184 184 184 183 183 183 183 182 181 180 178 177 175 174 174 173 173 172 169 166 162 156 151 147 142 140 137 135 134 135 134 134 133 131 128 126 124 124 123 124 123 123 121 121 120 119 118 117 117 117 115 113 111 108 106 102 100 99 98 99 99 99 100 103 104 103 104 105 107 109 108 106 105 105 104 102 101 98 96 92 87 84 80
188 188 187 186 186 186 186 185 185 185 184 183 182 181 179 178 178 177 177 176 175 173 170 165 160 155 150 147 144 141 139 139 137 137 137 136 134 130 129 128 127 128 128 128 126 124 124 121 121 119 117 119 119 118 115 110 108 106 103 100 100 100 101 102 105 109 110 109 111 111 111 112 112 111 109 107 105 104 104 100 95 91 86 82 78
190 191 190 189 188 189 188 187 187 188 188 186 185 185 184 183 182 181 180 179 179 178 175 172 168 164 160 156 151 147 144 143 141 141 141 140 139 135 132 132 131 131 131 132 131 129 128 126 125 124 121 120 118 118 117 114 112 110 105 101 102 101 101 104 109 113 115 115 116 116 116 115 114 113 111 109 108 107 106 101 96 91 86 80 76
192 193 193 192 191 191 191 190 189 190 191 190 188 188 188 187 186 185 183 181 183 182 179 177 175 172 169 165 159 154 151 149 147 145 145 144 141 137 134 134 134 134 135 136 138 137 136 134 131 128 126 122 120 119 117 114 111 109 105 101 102 103 101 102 108 115 119 118 119 119 118 117 116 115 113 112 112 110 106 102 96 91 86 80 74
193 194 195 194 194 194 193 192 192 192 193 193 191 191 190 189 189 189 188 185 185 185 184 182 180 178 175 172 168 163 158 156 153 150 148 147 144 138 135 136 137 136 136 138 141 143 143 142 138 134 131 127 124 125 120 113 110 108 107 105 104 104 101 102 110 118 122 122 123 121 120 120 119 117 117 116 114 111 108 102 97 92 86 80 74
194 194 195 195 196 196 195 195 194 194 195 195 194 192 191 191 191 192 192 191 190 189 188 187 185 184 181 178 175 171 166 162 159 157 153 151 147 142 139 138 137 136 136 138 140 143 145 145 144 140 136 132 129 129 125 117 112 108 108 108 108 105 102 104 113 119 123 126 125 122 121 123 121 119 120 118 115 113 109 104 98 93 86 79 75
197 196 196 197 197 197 197 197 197 196 196 196 195 194 194 193 193 194 194 195 194 193 192 191 189 188 185 183 180 176 171 166 165 163 159 155 151 148 145 141 139 139 139 139 139 141 143 145 146 143 141 139 135 130 128 123 117 113 111 111 110 106 104 108 115 120 124 126 126 124 123 124 123 122 122 120 118 115 109 104 100 95 87 80 77
199 198 198 198 198 197 197 198 199 199 198 197 196 197 196 196 197 197 197 197 196 196 196 194 192 190 187 186 183 179 174 170 168 167 163 160 157 153 151 147 145 144 142 142 141 141 143 145 148 146 146 147 143 135 130 126 122 120 117 114 111 108 107 111 117 123 126 126 128 127 124 125 126 125 123 121 119 115 109 105 101 96 89 81 78
201 200 199 199 199 199 198 198 200 200 199 198 197 198 199 199 199 199 199 199 198 198 199 197 193 191 189 187 186 182 176 172 170 169 167 165 163 158 156 153 150 148 147 147 146 146 147 149 151 151 151 152 149 142 134 130 126 125 122 118 115 112 112 115 119 124 127 129 131 129 126 128 129 126 125 123 119 116 112 107 102 97 91 84 79
203 202 201 200 200 201 200 199 200 200 200 198 197 199 201 201 201 202 202 201 200 200 200 199 196 193 191 189 189 184 178 175 173 171 169 169 168 163 160 158 155 152 152 151 150 151 152 152 153 154 154 154 153 149 143 138 134 130 128 125 121 119 118 120 123 125 127 130 132 130 130 134 133 130 128 125 120 119 116 111 106 100 93 85 79
205 204 204 202 201 202 201 201 201 201 200 199 198 200 202 203 204 204 204 202 202 202 201 201 198 195 193 191 191 188 182 177 176 174 172 172 173 169 165 162 160 158 156 155 154 154 155 155 157 158 157 157 156 155 153 149 143 137 135 134 130 128 126 125 128 128 128 131 133 133 133 135 136 134 131 127 125 124 120 115 110 102 93 84 76
205 205 205 204 203 203 202 202 203 202 201 201 200 200 202 204 205 205 205 203 203 204 203 202 199 197 196 194 193 192 187 183 180 179 177 177 177 175 172 169 166 164 161 159 158 156 156 156 158 159 159 161 160 159 159 155 150 145 143 142 139 138 136 134 135 133 131 132 134 136 134 133 137 136 131 131 132 131 127 121 111 101 90 80 71